This is the latest recevied weather packets stored in our database for station/object 9M2SAR-10. If no packets are shown the sender has not sent any weather packets the latest 10 day(s).
| Time | Temp. | Humidity | Pressure | Rain* | Wind** | Luminosity | Snow |
|---|---|---|---|---|---|---|---|
| 1777837597 | 26.67° C | 100% | 1008.7 hPa | - | - | - | - |
| 1777836697 | 27.22° C | 100% | 1009 hPa | - | - | - | - |
| 1777835797 | 27.22° C | 100% | 1009.1 hPa | - | - | - | - |
| 1777834897 | 27.22° C | 100% | 1009 hPa | - | - | - | - |
| 1777833997 | 26.67° C | 100% | 1009.1 hPa | - | - | - | - |
| 1777833096 | 26.67° C | 100% | 1009.4 hPa | - | - | - | - |
| 1777832196 | 26.11° C | 100% | 1009.5 hPa | - | - | - | - |
| 1777831296 | 26.11° C | 100% | 1009.4 hPa | - | - | - | - |
| 1777830396 | 26.67° C | 100% | 1009.8 hPa | - | - | - | - |
| 1777829496 | 27.78° C | 100% | 1010.1 hPa | - | - | - | - |
| 1777828596 | 27.22° C | 100% | 1010.3 hPa | - | - | - | - |
| 1777827696 | 26.11° C | 100% | 1010.3 hPa | - | - | - | - |
| 1777826796 | 26.67° C | 100% | 1010.1 hPa | - | - | - | - |
| 1777825896 | 26.67° C | 100% | 1010 hPa | - | - | - | - |
| 1777824996 | 26.67° C | 100% | 1010.1 hPa | - | - | - | - |
| 1777824096 | 26.67° C | 100% | 1010.3 hPa | - | - | - | - |
| 1777823196 | 27.22° C | 100% | 1010.5 hPa | - | - | - | - |
| 1777822295 | 27.78° C | 100% | 1010.9 hPa | - | - | - | - |
| 1777821395 | 27.22° C | 100% | 1010.9 hPa | - | - | - | - |
| 1777820495 | 26.67° C | 100% | 1011.1 hPa | - | - | - | - |
| 1777819595 | 27.78° C | 100% | 1011 hPa | - | - | - | - |
| 1777818695 | 27.78° C | 100% | 1010.8 hPa | - | - | - | - |
| 1777817795 | 27.78° C | 100% | 1010.7 hPa | - | - | - | - |
| 1777816895 | 28.89° C | 100% | 1010.2 hPa | - | - | - | - |
| 1777815995 | 28.89° C | 100% | 1010 hPa | - | - | - | - |
* Rain since midnight (hover to see other rain measurements)
** Current wind speed in m/s (hover to see current wind gust speed)